TimeHST,TemperatureF,Dew PointF,Humidity,Sea Level PressureIn,VisibilityMPH,Wind Direction,Wind SpeedMPH,Gust SpeedMPH,PrecipitationIn,Events,Conditions,WindDirDegrees,DateUTC
12:53 AM,73.0,62.1,68,30.10,10.0,NE,18.4,27.6,N/A,,Partly Cloudy,50,2011-12-10 10:53:00
1:53 AM,72.0,64.0,76,30.10,10.0,NE,16.1,-,N/A,,Scattered Clouds,40,2011-12-10 11:53:00
2:53 AM,73.0,61.0,66,30.09,10.0,NE,17.3,-,N/A,,Mostly Cloudy,50,2011-12-10 12:53:00
3:53 AM,73.0,63.0,71,30.09,10.0,NE,17.3,-,N/A,,Overcast,40,2011-12-10 13:53:00
4:53 AM,72.0,63.0,73,30.08,10.0,NE,19.6,-,N/A,,Partly Cloudy,40,2011-12-10 14:53:00
5:53 AM,73.0,63.0,71,30.07,10.0,NE,18.4,-,N/A,,Partly Cloudy,40,2011-12-10 15:53:00
6:53 AM,72.0,63.0,73,30.07,10.0,NNE,19.6,-,0.00,,Mostly Cloudy,30,2011-12-10 16:53:00
7:53 AM,73.0,63.0,71,30.09,10.0,NE,18.4,-,N/A,,Partly Cloudy,40,2011-12-10 17:53:00
8:53 AM,75.0,63.0,66,30.11,10.0,NNE,18.4,-,N/A,,Scattered Clouds,30,2011-12-10 18:53:00
9:53 AM,75.0,63.0,66,30.12,10.0,NE,19.6,27.6,N/A,,Mostly Cloudy,40,2011-12-10 19:53:00
10:53 AM,73.9,66.0,76,30.11,10.0,NNE,27.6,33.4,0.00,,Scattered Clouds,20,2011-12-10 20:53:00
11:53 AM,73.0,66.9,81,30.08,10.0,NNE,18.4,-,0.02,,Mostly Cloudy,30,2011-12-10 21:53:00
12:53 PM,75.9,64.0,67,30.06,10.0,NE,21.9,-,N/A,,Partly Cloudy,50,2011-12-10 22:53:00
1:53 PM,75.9,68.0,76,30.03,9.0,NNE,17.3,-,0.00,Rain,Light Rain,30,2011-12-10 23:53:00
2:53 PM,73.9,66.9,79,30.03,8.0,NE,24.2,28.8,0.01,,Mostly Cloudy,50,2011-12-11 00:53:00
3:53 PM,72.0,66.0,81,30.04,10.0,NNE,20.7,-,0.00,,Mostly Cloudy,30,2011-12-11 01:53:00
4:53 PM,72.0,66.9,84,30.05,10.0,NNE,19.6,-,N/A,,Overcast,30,2011-12-11 02:53:00
5:53 PM,72.0,66.0,81,30.06,10.0,ENE,20.7,-,0.00,,Mostly Cloudy,60,2011-12-11 03:53:00
6:45 PM,71.6,66.2,83,30.10,10.0,ENE,24.2,33.4,N/A,,Mostly Cloudy,70,2011-12-11 04:45:00
6:53 PM,71.1,64.0,78,30.09,10.0,ENE,25.3,34.5,N/A,,Overcast,70,2011-12-11 04:53:00
7:04 PM,69.8,64.4,83,30.10,10.0,ENE,21.9,28.8,N/A,,Mostly Cloudy,70,2011-12-11 05:04:00
7:53 PM,71.1,66.0,84,30.07,10.0,NNE,16.1,-,N/A,,Partly Cloudy,20,2011-12-11 05:53:00
8:53 PM,72.0,66.9,84,30.10,9.0,NE,23.0,28.8,0.00,,Scattered Clouds,40,2011-12-11 06:53:00
9:00 PM,71.6,68.0,88,30.10,9.0,NE,20.7,-,N/A,,Overcast,40,2011-12-11 07:00:00
9:22 PM,73.4,68.0,83,30.11,9.0,NE,26.5,34.5,N/A,,Overcast,50,2011-12-11 07:22:00
9:53 PM,73.0,66.0,79,30.11,10.0,NE,21.9,-,N/A,,Mostly Cloudy,50,2011-12-11 07:53:00
10:53 PM,72.0,68.0,87,30.10,6.0,ENE,16.1,-,0.02,Rain,Light Rain,60,2011-12-11 08:53:00
11:06 PM,71.6,66.2,83,30.10,10.0,ENE,24.2,34.5,0.00,Rain,Light Rain,60,2011-12-11 09:06:00
11:53 PM,72.5,66.9,83,30.09,10.0,NE,23.0,31.1,0.00,Rain,Light Rain,50,2011-12-11 09:53:00